Jade — 9HVS8 — position and weather

sailwx.info

Track history (hours):
 
Tides and Currents Weather Stations Pressure Air Temp Water Temp Dewpoint Dewpoint Depression Visibility Wind Speed Wind Dir Waves Ship Positions

Jade

Last reported at 2014-Jul-24 12:20 UTC. Time now 2014-Jul-25 06:45 UTC.
Position N 36°24' E 015°14'.

Length 175 m; draft 8 m.

Type: Tanker. MMSI: 256491000.

Date/timePositionNaut miles runAvg speedWind from/ knotsBaromVisibWave heightAir tempDewpointWater temp
2014-Jul-24 12:20N 36°24' E 015°14'1114.0
2014-Jul-24 11:33N 36°16' E 015°06'1413.9
2014-Jul-24 10:33N 36°04' E 014°55'1913.9
2014-Jul-24 09:09N 35°49' E 014°40'6 9.3
2014-Jul-24 08:33N 35°49' E 014°33'  
2014-Jul-22 04:32N 35°48' E 014°54'0 0.0
2014-Jul-22 03:26N 35°48' E 014°54'0 0.0
2014-Jul-22 02:32N 35°48' E 014°54'0 0.0
2014-Jul-22 01:15N 35°48' E 014°54'10 9.9
2014-Jul-22 00:17N 35°49' E 015°06'1113.5
2014-Jul-21 23:31N 35°49' E 015°19'1313.4
2014-Jul-21 22:33N 35°50' E 015°34'1313.4
2014-Jul-21 21:33N 35°51' E 015°51'1613.3
2014-Jul-21 20:21N 35°51' E 016°11'113.5
2014-Jul-21 20:18N 35°51' E 016°12'36812.8
2014-Jul-20 15:32N 36°59' E 023°41'3314.2
2014-Jul-20 13:11N 37°27' E 024°03'8514.0
2014-Jul-20 07:08N 38°31' E 025°13'914.5
2014-Jul-20 06:30N 38°36' E 025°23'2014.0
2014-Jul-20 05:04N 38°42' E 025°47'6 0.2
2014-Jul-18 18:04N 38°36' E 025°46'2214.7
2014-Jul-18 16:34N 38°13' E 025°46'2914.5
2014-Jul-18 14:32N 37°44' E 025°52'1414.1
2014-Jul-18 13:32N 37°31' E 025°56'1414.1
2014-Jul-18 12:31N 37°17' E 026°03'1414.1
2014-Jul-18 11:33N 37°05' E 026°10'1713.6
2014-Jul-18 10:19N 36°52' E 026°23'1113.9
2014-Jul-18 09:33N 36°44' E 026°32'  
Track history (hours):
 
Tides and Currents Weather Stations Pressure Air Temp Water Temp Dewpoint Dewpoint Depression Visibility Wind Speed Wind Dir Waves Ship Positions

Jade

Last reported at 2014-Jul-24 12:20 UTC. Time now 2014-Jul-25 06:45 UTC.
Position N 36°24' E 015°14'.

Length 175 m; draft 8 m.

Type: Tanker. MMSI: 256491000.

Date/timePositionNaut miles runAvg speedWind from/ knotsBaromVisibWave heightAir tempDewpointWater temp
2014-Jul-24 12:20N 36°24' E 015°14'1114.0
2014-Jul-24 11:33N 36°16' E 015°06'1413.9
2014-Jul-24 10:33N 36°04' E 014°55'1913.9
2014-Jul-24 09:09N 35°49' E 014°40'6 9.3
2014-Jul-24 08:33N 35°49' E 014°33'  
2014-Jul-22 04:32N 35°48' E 014°54'0 0.0
2014-Jul-22 03:26N 35°48' E 014°54'0 0.0
2014-Jul-22 02:32N 35°48' E 014°54'0 0.0
2014-Jul-22 01:15N 35°48' E 014°54'10 9.9
2014-Jul-22 00:17N 35°49' E 015°06'1113.5
2014-Jul-21 23:31N 35°49' E 015°19'1313.4
2014-Jul-21 22:33N 35°50' E 015°34'1313.4
2014-Jul-21 21:33N 35°51' E 015°51'1613.3
2014-Jul-21 20:21N 35°51' E 016°11'113.5
2014-Jul-21 20:18N 35°51' E 016°12'36812.8
2014-Jul-20 15:32N 36°59' E 023°41'3314.2
2014-Jul-20 13:11N 37°27' E 024°03'8514.0
2014-Jul-20 07:08N 38°31' E 025°13'914.5
2014-Jul-20 06:30N 38°36' E 025°23'2014.0
2014-Jul-20 05:04N 38°42' E 025°47'6 0.2
2014-Jul-18 18:04N 38°36' E 025°46'2214.7
2014-Jul-18 16:34N 38°13' E 025°46'2914.5
2014-Jul-18 14:32N 37°44' E 025°52'1414.1
2014-Jul-18 13:32N 37°31' E 025°56'1414.1
2014-Jul-18 12:31N 37°17' E 026°03'1414.1
2014-Jul-18 11:33N 37°05' E 026°10'1713.6
2014-Jul-18 10:19N 36°52' E 026°23'1113.9
2014-Jul-18 09:33N 36°44' E 026°32'  

Dump ship's entire track history